Погода в Карькове

Россия / Костромская область     58°11′57″N   44°37′31″E
темп.,
°C
ветер,
м/с
пор.,
м/с
влажн.,
%
обл.,
%
осадки,
мм/ч
давл.,
гПа
погр.,
м
13 апреля, вт
вт1300:00+5юв4993100 0.0 1036408
03:00+4юв31098100 0.0 1034350
06:00+5юв3999100 0.0 1033347
09:00+6ююв3898100 0.0 1032270
12:00+10ю4792100 0.0 1030379
15:00+14ю4877100 0.0 1028625
18:00+12ююв3889100 0.0 1027220
21:00+9ю3129396 0.0 1027296
14 апреля, ср
ср1400:00+7ю3129164 0.0 1026214
03:00+6ю3128685 0.0 1026219
06:00+6ю2108597 0.0 1026177
09:00+13ю486462 0.0 1025336
12:00+17ю484895 0.0 1023963
15:00+18ю474630 0.0 10221421
18:00+14ю386299 0.0 1021194
21:00+9ю397899 0.0 1021157
15 апреля, чт
чт1500:00+8ю2982100 0.0 1020160
03:00+7ююз2283100 0.0 101941
06:00+7зюз2282100 0.0 101930
09:00+12з116014 0.0 1019273
12:00+16с225268 0.0 10191084
15:00+8ссв6876100 0.0 1022618
18:00+6св51381100 0.0 1024598
21:00+5св51177100 0.1 1025829
16 апреля, пт
пт1600:00+5св4108394 0.1 1026836
03:00+3св41269100 0.1 1027590
06:00+2св41269100 0.0 1028544
09:00+6всв58485 0.0 1029787
12:00+9всв46363 0.0 10281168
15:00+11св45345 0.0 10281354
18:00+9св36455 0.0 1028307
21:00+4св26652 0.0 1030114
17 апреля, сб
сб1700:00+2св26745 0.0 1030117
03:00+1св23777 0.0 103163
06:00+1ссв24731 0.0 1032109
09:00+7св24491 0.0 1031717
12:00+11с34425 0.0 10311547
15:00+12с464066 0.0 10301970
18:00+10с47495 0.0 1030630
21:00+5с28705 0.0 1032168